Dewpoint
-4 -1 -1 -0 0 2 2 3 4 5 7 6 5 2 0 2 1 -1 -0 -1 -4 -4 0 -2 1 4 5 8 10 10 9 11 12 11 12 13 15 18 22 25 27 29 30 30 30 31 33 34 34 35 36 39 40 41 44 45 46 46 47 47 47 47 48 49 48 49 51 52 52 53 53 52 54 55
-5 -4 -5 -4 -3 -2 -2 3 3 3 5 6 4 2 3 3 2 2 1 1 -0 -1 0 1 1 4 5 7 10 10 9 10 10 10 11 12 12 17 19 20 22 26 27 26 27 29 30 32 32 33 36 37 39 40 42 43 44 45 47 47 47 46 46 46 49 50 50 51 51 51 52 52 51 51
-4 0 -4 -4 -5 -4 -3 -1 3 5 8 6 7 6 8 8 7 5 3 2 2 -1 -3 -4 -2 1 5 6 7 10 10 11 9 9 9 10 13 16 14 16 18 22 24 24 25 26 28 29 31 32 34 35 37 38 39 41 42 43 45 46 47 47 47 48 48 48 49 50 50 51 51 52 52 51
-2 -5 -3 -3 -4 -4 -3 -2 0 4 6 8 9 9 8 8 8 7 6 6 6 4 5 4 4 6 5 6 7 7 9 9 10 8 7 7 12 9 8 13 16 18 20 21 22 25 27 28 30 31 31 33 34 36 37 39 40 40 44 45 45 45 46 46 47 47 48 49 49 50 51 51 52 51
-4 -0 1 1 -1 0 0 -1 1 1 2 7 8 9 9 8 9 8 7 6 6 3 5 3 0 1 2 1 4 5 7 7 6 8 7 6 6 7 9 10 14 16 18 20 21 23 25 26 27 28 30 31 33 34 35 36 38 39 41 43 44 44 45 45 44 46 47 47 48 48 49 50 50 50
0 0 0 -2 1 2 2 3 2 -2 2 4 7 6 8 6 7 8 7 5 5 5 2 0 -1 -1 1 1 4 5 4 3 5 6 6 6 6 7 9 11 13 16 18 20 22 23 24 25 26 27 29 29 31 32 33 35 37 37 38 39 41 43 43 42 43 44 45 46 47 47 47 47 48 49
1 0 1 1 -0 1 1 2 1 2 2 3 4 5 6 6 7 6 6 7 6 6 5 3 1 -1 -0 -1 -1 2 4 5 5 5 5 5 7 9 9 11 15 18 20 21 23 24 25 25 26 27 27 28 30 32 33 33 34 34 35 37 38 39 40 41 41 41 40 42 44 45 45 46 47 47
0 1 1 1 1 1 1 2 1 -0 1 0 1 2 3 5 5 4 4 7 6 6 5 6 2 1 -1 -2 -0 1 1 2 3 4 4 6 9 12 15 14 13 16 19 20 21 23 24 25 26 28 28 28 29 29 30 31 32 33 34 36 37 37 39 40 38 40 39 39 39 42 43 43 43 44
-3 -3 1 0 2 2 1 2 1 1 2 2 1 1 1 0 2 4 5 5 6 5 5 5 5 3 1 1 1 2 1 -0 -1 -0 -1 -1 7 12 12 11 11 14 17 18 20 22 24 25 26 27 28 28 28 29 30 31 32 32 34 35 37 36 37 38 40 41 42 41 40 38 40 41 41 41
2 2 2 -0 2 3 3 3 2 3 2 3 3 3 2 2 2 2 3 3 4 4 3 4 3 5 4 5 2 2 -0 -2 -2 -1 2 4 7 4 3 3 5 8 10 14 16 18 20 22 25 27 27 28 28 29 30 31 32 33 34 35 35 36 37 37 40 42 42 42 42 42 42 42 42 42
-0 2 3 4 4 4 4 4 4 4 4 3 3 4 4 4 4 3 3 3 3 3 3 3 4 2 4 2 1 4 1 -1 -0 5 6 5 3 2 0 2 5 7 8 12 16 19 19 20 20 22 25 27 29 30 30 31 31 33 33 34 34 34 36 38 39 41 41 42 41 41 41 42 42 39
4 3 4 4 4 5 6 5 5 5 4 4 4 5 5 5 4 4 4 4 3 3 3 1 2 1 3 1 4 5 2 3 4 7 5 1 -1 -2 -2 -1 2 7 10 8 11 16 20 22 23 25 25 26 27 28 30 31 32 33 33 34 34 34 36 37 38 40 41 41 41 41 41 41 41 42
4 5 5 6 6 7 8 8 8 8 7 4 4 5 6 5 5 4 4 3 2 3 3 3 4 3 3 3 4 3 2 1 1 5 6 3 -1 -0 2 1 -1 0 1 6 12 16 20 19 20 21 21 23 25 26 28 29 31 32 33 34 34 35 35 36 37 39 40 40 40 41 41 41 40 41
4 4 6 7 9 9 10 10 11 12 12 11 7 4 5 5 5 4 4 3 4 5 4 3 3 3 3 3 4 4 4 6 7 3 6 4 4 3 4 1 2 6 11 13 15 16 20 21 21 21 21 24 25 25 25 25 27 29 32 33 34 34 35 36 36 37 38 39 40 40 40 40 40 41
7 7 7 8 9 10 11 10 12 13 15 15 14 13 10 9 7 6 5 4 5 4 4 5 4 3 4 4 5 5 6 7 6 4 5 4 4 4 4 3 6 6 12 14 15 16 19 20 21 22 22 23 25 26 26 28 29 29 30 31 33 33 34 35 36 37 37 38 39 40 40 40 40 40
8 9 10 10 10 10 10 10 11 13 15 16 16 16 15 14 13 12 7 5 5 5 4 3 4 4 3 4 5 5 5 5 5 7 7 6 5 5 3 1 3 3 6 17 20 21 20 23 23 23 24 24 24 26 26 28 29 30 31 31 32 33 34 35 35 36 37 37 39 39 39 39 39 39
10 11 11 12 12 11 13 12 11 11 12 15 15 16 16 16 16 16 16 13 8 7 6 5 4 4 5 5 6 6 6 7 6 5 4 5 6 6 4 3 6 9 11 14 18 18 18 20 24 23 24 24 24 25 27 28 30 31 30 30 31 32 33 34 35 36 36 36 37 38 39 39 39 39
12 13 13 13 13 14 13 13 12 12 11 11 12 13 14 14 14 16 17 18 17 12 9 8 7 8 8 6 8 10 10 9 6 6 5 7 6 7 7 9 10 14 17 19 18 17 18 19 20 23 23 24 24 25 26 28 30 30 31 31 32 32 32 33 33 34 35 35 36 37 38 38 39 39
14 15 16 16 15 15 14 13 13 12 11 11 11 11 12 13 14 14 14 14 15 15 14 11 11 11 11 10 10 11 11 11 9 9 9 9 10 10 11 12 14 16 19 20 19 16 16 16 16 17 18 20 21 23 26 28 29 30 30 31 32 33 33 33 33 33 34 34 35 36 37 38 38 39
15 16 16 16 17 17 16 16 18 16 12 11 10 10 10 11 12 13 16 18 17 15 16 16 15 14 13 15 13 13 11 11 11 10 10 10 10 9 9 9 11 13 16 18 18 18 18 18 15 16 16 18 18 21 21 26 29 30 30 31 32 32 33 33 34 34 34 34 35 36 36 37 38 38
16 17 16 18 18 18 17 18 19 20 17 12 11 10 10 10 11 11 12 17 20 20 20 19 19 19 19 19 19 19 19 16 13 10 9 9 10 10 10 11 12 13 15 18 21 19 18 20 20 21 22 20 22 21 22 23 28 30 30 31 31 31 32 32 33 34 34 34 35 35 35 36 36 37
15 15 17 19 19 18 17 19 20 21 19 13 12 12 11 10 10 11 12 13 14 19 21 21 21 20 20 20 20 20 20 20 19 13 10 12 12 11 11 11 12 13 15 18 22 20 19 20 21 20 22 21 24 25 24 23 24 29 30 31 31 31 32 32 32 32 33 33 33 33 33 34 34 34
14 15 17 20 20 19 18 20 21 21 20 17 14 13 13 12 11 12 13 14 14 14 14 15 17 18 19 19 20 20 19 19 20 19 15 14 13 13 13 13 13 13 14 17 24 20 19 20 21 22 21 21 23 26 26 26 26 27 27 26 28 31 31 31 31 31 32 32 32 32 32 34 34 31
14 14 16 18 21 22 21 21 22 20 21 19 17 15 14 14 13 14 15 15 14 15 14 14 15 16 17 17 19 19 19 19 19 19 20 19 17 15 15 14 14 14 15 18 26 21 20 22 21 24 23 19 20 23 26 27 28 28 27 27 27 29 31 32 32 32 32 31 31 31 31 32 34 30
13 14 16 17 20 21 22 22 22 21 20 19 19 18 16 16 16 17 16 16 18 16 16 15 15 15 15 15 15 16 17 17 18 19 19 19 19 18 17 16 15 16 16 19 24 23 20 22 22 23 23 23 23 23 24 26 27 27 27 27 27 27 28 29 29 29 31 32 32 32 32 32 33 32
13 14 15 17 19 20 21 21 20 19 18 18 18 18 21 22 22 20 19 17 16 16 15 15 15 15 15 15 16 16 16 16 18 19 19 20 20 19 19 18 17 16 16 21 23 25 23 20 21 21 21 21 21 24 23 24 23 26 28 28 28 28 28 28 28 28 27 29 29 31 31 32 32 33
14 15 16 17 20 21 21 20 19 18 18 17 18 21 21 20 20 20 19 20 18 16 16 16 15 15 15 16 16 17 17 17 19 18 19 20 21 20 21 21 21 19 20 23 26 27 25 21 23 23 22 22 22 22 23 21 23 25 26 27 28 29 29 28 28 28 28 28 28 29 30 31 31 32
13 15 16 18 20 21 20 19 18 18 18 17 19 19 18 17 18 16 16 16 17 18 17 16 16 16 16 16 16 16 16 17 19 20 21 21 22 22 21 22 23 23 24 24 25 25 25 24 23 24 24 23 21 21 21 22 22 24 22 25 26 27 26 26 26 27 27 27 28 29 28 28 29 29
14 15 17 19 19 19 20 19 18 18 20 17 16 16 16 17 14 14 14 14 14 15 17 17 17 17 17 17 17 19 19 20 20 20 21 22 21 22 22 22 22 23 23 24 23 24 24 23 23 23 24 23 23 23 23 21 23 23 23 23 23 23 25 26 26 25 26 26 26 27 27 27 27 28
16 17 18 18 19 18 18 16 17 15 14 16 16 16 15 13 12 12 12 14 14 14 14 15 15 17 18 18 17 20 20 19 19 19 19 19 19 20 19 19 19 20 21 22 23 23 24 25 25 24 23 23 23 22 22 21 20 21 23 23 22 24 24 24 24 25 26 26 26 27 27 27 27 28
15 15 16 17 18 17 18 18 16 15 14 11 10 10 10 10 10 12 13 13 13 14 14 15 15 15 15 17 20 20 20 20 20 21 21 20 20 19 19 19 19 19 21 22 22 23 24 25 25 25 23 23 23 23 23 22 22 21 21 22 23 21 19 23 25 25 25 26 26 26 27 27 27 28
15 16 18 16 15 16 14 12 10 10 8 8 8 8 9 9 11 13 15 15 15 15 15 15 15 16 17 16 16 16 17 17 18 18 18 18 18 20 20 19 18 19 19 21 22 23 23 25 25 24 24 24 23 23 23 23 22 21 21 22 23 23 23 24 23 24 26 26 25 24 24 25 25 26
12 13 13 14 13 13 12 11 10 9 8 7 7 8 9 9 10 11 11 11 12 13 14 14 14 14 15 15 16 16 15 16 16 17 17 19 19 19 20 19 18 18 18 19 21 22 23 24 25 25 24 25 25 25 24 22 22 22 22 22 23 22 22 22 23 23 26 25 24 23 23 22 22 23
10 10 10 11 10 10 10 10 9 8 7 7 6 7 9 8 9 10 10 11 11 12 12 12 12 13 14 14 15 16 16 16 16 17 19 19 20 19 19 19 18 18 19 19 20 20 21 22 22 22 23 22 24 24 24 23 21 22 22 22 22 21 21 22 23 24 25 24 23 22 22 21 21 21
8 9 9 9 9 10 10 9 9 8 7 6 6 6 6 6 7 9 9 8 9 9 9 10 10 11 12 13 14 14 15 15 15 16 18 19 19 20 18 17 18 18 18 19 19 20 21 20 20 20 20 21 21 23 24 24 23 22 23 22 22 21 21 22 22 23 24 24 24 22 21 21 20 20
6 7 8 8 8 9 9 8 8 7 6 6 5 4 4 5 6 6 6 6 6 6 6 7 8 9 11 12 13 14 15 15 15 15 15 16 17 18 18 18 18 18 18 18 19 20 21 19 19 19 19 19 19 18 19 24 25 23 23 22 22 21 21 21 20 20 21 23 23 22 21 20 20 19
6 7 7 8 8 8 7 8 7 6 5 4 3 3 3 4 3 2 2 2 2 4 5 6 7 8 10 11 12 13 14 15 15 16 16 17 17 17 17 17 18 18 18 18 19 19 21 19 19 19 18 18 17 16 16 21 23 25 24 22 21 20 21 20 19 19 19 20 20 21 21 20 19 18
7 7 8 8 8 8 7 6 5 4 3 2 1 -0 -1 -0 -1 -2 -2 -0 2 4 5 5 6 7 8 9 10 10 12 13 15 15 16 16 17 17 16 15 16 16 16 17 19 19 21 19 19 18 18 17 16 16 16 17 19 21 23 23 21 20 21 20 20 20 18 15 19 19 18 18 18 17
9 9 9 9 8 7 6 4 3 3 1 -1 -2 -2 -3 -4 -4 -3 -2 -0 1 1 3 4 4 5 6 7 9 9 10 11 13 15 16 16 16 16 15 15 17 17 16 16 18 20 20 19 19 18 18 17 16 16 16 17 17 19 21 22 21 21 20 20 21 22 19 16 15 15 15 15 17 18
9 9 8 8 5 4 3 1 0 -1 -2 -4 -4 -5 -5 -4 -3 -3 -2 -2 -1 -1 -0 1 4 5 5 5 6 8 9 11 12 14 16 15 15 15 16 16 15 15 16 16 18 19 19 19 19 19 20 18 18 19 19 18 17 18 19 21 21 21 20 20 21 21 19 18 17 16 17 16 16 16
4 4 3 2 1 -0 -1 -2 -2 -4 -5 -6 -7 -5 -6 -5 -5 -4 -3 -2 -2 -3 -2 -1 1 2 3 3 4 6 7 9 11 13 15 15 15 16 17 17 16 16 15 16 17 18 19 20 20 20 21 21 21 20 19 17 16 16 17 17 19 21 21 20 22 21 19 17 17 18 17 16 16 15
2 -1 -3 -2 -2 -3 -3 -4 -6 -6 -7 -8 -8 -7 -7 -6 -5 -2 -2 -3 -6 -6 -5 -3 -2 -1 -0 1 3 4 6 8 10 12 15 16 17 17 17 17 16 16 16 16 17 17 19 19 19 21 22 21 20 19 18 18 18 17 16 16 18 20 20 20 21 19 18 17 17 16 14 14 13 15
-2 -3 -4 -5 -5 -6 -6 -7 -8 -8 -8 -9 -8 -8 -7 -6 -6 -5 -6 -7 -7 -7 -6 -5 -4 -3 -2 -0 1 3 5 7 9 11 13 16 18 18 18 18 18 16 17 17 18 18 17 19 20 21 21 21 20 20 19 19 18 15 15 15 17 18 19 20 20 19 19 20 19 17 17 16 15 14
-4 -5 -6 -6 -7 -8 -8 -9 -9 -9 -9 -9 -9 -9 -8 -6 -7 -7 -8 -8 -8 -8 -8 -7 -6 -5 -3 -2 0 2 4 7 9 10 12 14 18 19 19 19 19 19 18 17 17 16 16 17 19 20 20 20 20 20 19 19 16 15 15 16 17 17 17 18 19 19 18 18 20 21 20 19 17 17
-5 -6 -8 -8 -9 -9 -9 -10 -10 -10 -10 -10 -9 -9 -9 -8 -8 -9 -10 -10 -10 -10 -10 -9 -8 -6 -5 -3 -1 2 5 7 8 9 11 13 16 19 20 19 19 19 18 17 16 15 15 15 16 17 18 17 18 19 19 17 15 14 14 15 15 15 15 14 15 15 14 13 14 18 20 20 19 19